This is the latest recevied weather packets stored in our database for station/object N4DBJ. If no packets are shown the sender has not sent any weather packets the latest 1 day(s).
| Time | Temp. | Humidity | Pressure | Rain* | Wind** | Luminosity | Snow |
|---|---|---|---|---|---|---|---|
| 1778028531 | 15.56° C | 99% | 1005.6 hPa | 0 mm | 0.45 m/s, 215° | 0 W/m² | - |
| 1778028229 | 15.56° C | 99% | 1005.7 hPa | 0 mm | 0 m/s | 0 W/m² | - |
| 1778027925 | 15.56° C | 99% | 1005.6 hPa | 0 mm | 0 m/s | 0 W/m² | - |
| 1778027621 | 15.56° C | 99% | 1005.8 hPa | 0 mm | 0 m/s | 0 W/m² | - |
| 1778027318 | 15.56° C | 99% | 1005.8 hPa | 0 mm | 0 m/s | 0 W/m² | - |
| 1778027014 | 15.56° C | 99% | 1005.7 hPa | 0 mm | 0 m/s | 0 W/m² | - |
| 1778026710 | 15.56° C | 99% | 1005.6 hPa | 0 mm | 0.45 m/s, 182° | 1 W/m² | - |
| 1778026407 | 15.56° C | 99% | 1005.7 hPa | 0 mm | 0 m/s | 3 W/m² | - |
| 1778026104 | 15.56° C | 99% | 1005.8 hPa | 0 mm | 0 m/s | 5 W/m² | - |
| 1778025802 | 15.56° C | 99% | 1006.1 hPa | 0 mm | 0 m/s | 9 W/m² | - |
| 1778025499 | 15.56° C | 99% | 1006 hPa | 0 mm | 0 m/s | 9 W/m² | - |
| 1778025196 | 15.56° C | 99% | 1006.1 hPa | 0 mm | 0 m/s | 12 W/m² | - |
| 1778024893 | 15.56° C | 99% | 1005.9 hPa | 0 mm | 0 m/s | 12 W/m² | - |
| 1778024591 | 15.56° C | 99% | 1005.9 hPa | 0 mm | 0 m/s | 10 W/m² | - |
| 1778024287 | 15.56° C | 99% | 1005.9 hPa | 0 mm | 0 m/s | 13 W/m² | - |
| 1778023985 | 15.56° C | 99% | 1005.7 hPa | 0 mm | 0 m/s | 6 W/m² | - |
| 1778023682 | 15.56° C | 99% | 1005.6 hPa | 0 mm | 0 m/s | 21 W/m² | - |
| 1778023380 | 15.56° C | 98% | 1005.7 hPa | 0 mm | 0 m/s | 9 W/m² | - |
| 1778023076 | 15.56° C | 98% | 1005.6 hPa | 0 mm | 0 m/s | 13 W/m² | - |
| 1778022775 | 16.11° C | 96% | 1006.2 hPa | 0 mm | 0 m/s | 8 W/m² | - |
| 1778022473 | 16.11° C | 94% | 1006.6 hPa | 0 mm | 0 m/s | 7 W/m² | - |
| 1778022169 | 16.67° C | 91% | 1006.4 hPa | 0 mm | 0.45 m/s, 46° | 11 W/m² | - |
| 1778021866 | 17.22° C | 86% | 1006.1 hPa | 0 mm | 0.45 m/s, 226° | 12 W/m² | - |
| 1778021563 | 17.78° C | 84% | 1006.1 hPa | 0 mm | 0.89 m/s, 260° | 6 W/m² | - |
| 1778021258 | 19.44° C | 76% | 1006.1 hPa | 0 mm | 0.45 m/s, 26° | 23 W/m² | - |
* Rain latest hour (hover to see other rain measurements)
** Current wind speed in m/s (hover to see current wind gust speed)